Location: Vancouver
(49.2500°N, 123.1330°W)
Time: 22:58:30
(UTC-07:00)

S-56A Canister/Altair - Visible Passes

Search period start: 30 September 2014 00:00
Search period end: 10 October 2014 00:00
Orbit: 633 x 2503 km, 38.9° (Epoch: 29 September)

Date Brightness Start Highest point End Pass type
(mag) Time Alt. Az. Time Alt. Az. Time Alt. Az.
30 Sep 9.2 04:47:45 17° SSE 04:47:52 17° SSE 04:50:54 10° ESE visible
01 Oct 9.5 04:17:20 15° SE 04:17:20 15° SE 04:18:56 10° ESE visible
01 Oct 8.8 06:14:56 10° SW 06:18:44 23° S 06:22:16 10° SE visible
02 Oct 10.0 03:46:55 10° SE 03:46:55 10° SE 03:46:59 10° ESE visible
02 Oct 8.7 05:44:23 17° SW 05:46:46 24° S 05:50:21 10° SE visible
03 Oct 8.7 05:13:57 23° SSW 05:14:47 25° S 05:18:29 10° ESE visible
04 Oct 8.9 04:43:31 24° SSE 04:43:31 24° SSE 04:46:38 10° ESE visible
04 Oct 8.9 06:42:05 10° WSW 06:45:35 20° SSW 06:48:50 10° SSE visible
05 Oct 9.4 04:13:05 19° SE 04:13:05 19° SE 04:14:49 10° ESE visible
05 Oct 8.8 06:10:33 13° WSW 06:13:37 22° SSW 06:17:05 10° SE visible
06 Oct 10.0 03:42:40 12° ESE 03:42:40 12° ESE 03:42:59 10° ESE visible
06 Oct 8.7 05:40:08 21° SW 05:41:39 24° SSW 05:45:20 10° SE visible
07 Oct 8.7 05:09:44 26° S 05:09:44 26° S 05:13:36 10° SE visible
08 Oct 9.0 04:39:21 24° SSE 04:39:21 24° SSE 04:41:52 10° SE visible
08 Oct 9.3 06:37:44 10° WSW 06:40:15 14° SSW 06:42:34 10° S visible
09 Oct 9.7 04:09:00 16° SE 04:09:00 16° SE 04:10:07 10° SE visible
09 Oct 9.1 06:06:29 14° SW 06:08:17 16° SSW 06:11:12 10° SSE visible
